Back to catalog

STARLINK-34414

AliveCommunicationsVLEO
NORAD 64620·PAYLOAD·🇺🇸 United States

Launched Jun 25, 2025 from Cape Canaveral Space Force Station

Loading…

Next Passes (next 24 hours)

TLE

FreshSource: CelesTrak SupGP

Epoch: Sep 14, 2026, 20:57 UTC

1 64620C 25137AC  26257.87340278  .00001199  00000+0  35425-4 0  2576
2 64620  53.1566 173.9769 0001348 108.0110 309.6094 15.34377939    18

Track STARLINK-34414 in real time with AllMySat

Download on the App Store